Time,TemperatureF,DewpointF,PressureIn,WindDirection,WindDirectionDegrees,WindSpeedMPH,WindSpeedGustMPH,Humidity,HourlyPrecipIn,Conditions,Clouds,dailyrainin,SolarRadiationWatts/m^2,SoftwareType,DateUTC
2013-03-10 03:00:00,29.0,14.0,-100.00,NNW,345,9.0,15.0,53,-99.99,,,-99.99,0.000000,,2013-03-10 09:00:00,
2013-03-10 04:00:00,25.0,14.0,-100.00,North,2,6.0,-999.0,60,-99.99,,,-99.99,0.000000,,2013-03-10 10:00:00,
2013-03-10 05:00:00,24.0,14.0,-100.00,ENE,74,1.0,-999.0,66,-99.99,,,-99.99,0.000000,,2013-03-10 11:00:00,
2013-03-10 05:52:00,24.0,14.0,-100.00,ENE,74,1.0,-999.0,66,-99.99,,,-99.99,0.000000,,2013-03-10 11:52:00,
2013-03-10 06:00:00,22.0,12.0,-100.00,NE,48,1.0,4.0,65,-99.99,,,-99.99,0.000000,,2013-03-10 12:00:00,
2013-03-10 06:52:00,22.0,12.0,-100.00,NE,48,1.0,-999.0,65,-99.99,,,-99.99,0.000000,,2013-03-10 12:52:00,
2013-03-10 07:00:00,24.0,13.0,-100.00,NNE,19,3.0,5.0,60,-99.99,,,-99.99,0.000000,,2013-03-10 13:00:00,
2013-03-10 08:00:00,22.0,13.0,-100.00,North,8,2.0,8.0,70,-99.99,,,-99.99,2.180000,,2013-03-10 14:00:00,
2013-03-10 09:00:00,31.0,13.0,-100.00,North,360,3.0,-999.0,47,-99.99,,,-99.99,85.800003,,2013-03-10 15:00:00,
2013-03-10 11:00:00,40.0,15.0,-100.00,North,7,5.0,-999.0,36,-99.99,,,-99.99,562.000000,,2013-03-10 17:00:00,
2013-03-10 11:51:00,40.0,15.0,-100.00,North,7,5.0,-999.0,36,-99.99,,,-99.99,562.000000,,2013-03-10 17:51:00,
2013-03-10 12:00:00,43.0,13.0,-100.00,WNW,294,3.0,-999.0,30,-99.99,,,-99.99,722.700012,,2013-03-10 18:00:00,
2013-03-10 12:52:00,43.0,13.0,-100.00,WNW,294,3.0,-999.0,30,-99.99,,,-99.99,722.700012,,2013-03-10 18:52:00,
2013-03-10 13:00:00,44.0,17.0,-100.00,WSW,242,4.0,-999.0,33,-99.99,,,-99.99,826.000000,,2013-03-10 19:00:00,
2013-03-10 13:53:00,44.0,17.0,-100.00,WSW,242,4.0,-999.0,33,-99.99,,,-99.99,826.000000,,2013-03-10 19:53:00,
2013-03-10 14:00:00,44.0,19.0,-100.00,SW,216,5.0,-999.0,36,-99.99,,,-99.99,864.000000,,2013-03-10 20:00:00,
2013-03-10 14:53:00,44.0,19.0,-100.00,SW,216,5.0,-999.0,36,-99.99,,,-99.99,864.000000,,2013-03-10 20:53:00,
2013-03-10 15:00:00,45.0,20.0,-100.00,SW,234,4.0,-999.0,36,-99.99,,,-99.99,835.000000,,2013-03-10 21:00:00,
2013-03-10 15:53:00,45.0,20.0,-100.00,SW,234,4.0,-999.0,36,-99.99,,,-99.99,835.000000,,2013-03-10 21:53:00,
2013-03-10 16:00:00,48.0,21.0,-100.00,West,266,3.0,-999.0,34,-99.99,,,-99.99,739.900024,,2013-03-10 22:00:00,
2013-03-10 16:53:00,48.0,21.0,-100.00,West,266,3.0,-999.0,34,-99.99,,,-99.99,739.900024,,2013-03-10 22:53:00,
2013-03-10 17:00:00,47.0,21.0,-100.00,WSW,247,4.0,-999.0,35,-99.99,,,-99.99,585.000000,,2013-03-10 23:00:00,
2013-03-10 17:52:00,47.0,21.0,-100.00,WSW,247,4.0,-999.0,35,-99.99,,,-99.99,585.000000,,2013-03-10 23:52:00,
2013-03-10 18:00:00,45.0,22.0,-100.00,SSW,210,5.0,-999.0,40,-99.99,,,-99.99,386.100006,,2013-03-11 00:00:00,
2013-03-10 18:53:00,45.0,22.0,-100.00,SSW,210,5.0,-999.0,40,-99.99,,,-99.99,386.100006,,2013-03-11 00:53:00,
2013-03-10 19:00:00,43.0,25.0,-100.00,SW,216,4.0,-999.0,48,-99.99,,,-99.99,173.100006,,2013-03-11 01:00:00,
2013-03-10 19:53:00,43.0,25.0,-100.00,SW,216,4.0,-999.0,48,-99.99,,,-99.99,173.100006,,2013-03-11 01:53:00,
2013-03-10 20:00:00,38.0,26.0,-100.00,SSW,208,3.0,-999.0,62,-99.99,,,-99.99,13.160000,,2013-03-11 02:00:00,
2013-03-10 20:52:00,38.0,26.0,-100.00,SSW,208,3.0,-999.0,62,-99.99,,,-99.99,13.160000,,2013-03-11 02:52:00,
2013-03-10 21:00:00,37.0,26.0,-100.00,SSW,208,3.0,-999.0,64,-99.99,,,-99.99,0.000000,,2013-03-11 03:00:00,
2013-03-10 21:53:00,37.0,26.0,-100.00,SSW,208,3.0,-999.0,64,-99.99,,,-99.99,0.000000,,2013-03-11 03:53:00,
2013-03-10 22:00:00,31.0,26.0,-100.00,West,262,1.0,-999.0,81,-99.99,,,-99.99,0.000000,,2013-03-11 04:00:00,
2013-03-10 22:53:00,31.0,26.0,-100.00,West,262,1.0,-999.0,81,-99.99,,,-99.99,0.000000,,2013-03-11 04:53:00,
2013-03-10 23:00:00,31.0,24.0,-100.00,NE,36,1.0,-999.0,76,-99.99,,,-99.99,0.000000,,2013-03-11 05:00:00,
2013-03-10 23:52:00,31.0,24.0,-100.00,NE,36,1.0,-999.0,76,-99.99,,,-99.99,0.000000,,2013-03-11 05:52:00,